Location: ????????
(38.4362°N, 22.8767°E)
Time: 11:13:47
(UTC+00:00)

Cosmos 2266 Rocket - Pass Details

Date: 23 April 2024
Orbit: 934 x 1007 km, 82.9° (Epoch: 18 May)

Event Time Altitude Azimuth Distance (km) Brightness Sun altitude
Exits shadow 01:47:39 26° 188° (S) 1,771 5.0 -20.7°
Maximum altitude 01:51:18 86° 275° (W) 944 3.8 -20.1°
Drops below altitude 10° 01:57:22 10° 6° (N) 2,651 6.8 -19.1°
Sets 01:59:51 0° 7° (N) 3,600 7.6 -18.7°
